Location: Unspecified
(0.0000°N, 0.0000°E)
Time: 15:33:26
(UTC+00:00)

N. Korean satellite - Pass Details

Date: 17 September 2020
Orbit: 455 x 503 km, 97.2° (Epoch: 19 September)

Event Time Altitude Azimuth Distance (km) Brightness Sun altitude
Rises 04:19:28 0° 45° (NE) 2,547 10.9 -23.7°
Reaches altitude 10° 04:22:40 10° 77° (ENE) 1,658 10.3 -22.9°
Maximum altitude 04:24:05 12° 101° (E) 1,534 10.1 -22.6°
Drops below altitude 10° 04:25:30 10° 124° (SE) 1,651 10.0 -22.2°
Sets 04:28:40 0° 156° (SSE) 2,519 10.5 -21.4°
